Location: Brno
(49.2000°N, 16.6330°E)
Time: 18:59:12
(UTC+02:00)

Transit 4A - Pass Details

Date: 26 July 2021
Orbit: 871 x 974 km, 66.8° (Epoch: 16 September)

Event Time Altitude Azimuth Distance (km) Brightness Sun altitude
Rises 08:33:26 0° 323° (NW) 3,469 10.5 29.7°
Reaches altitude 10° 08:36:27 10° 337° (NNW) 2,531 10.0 30.2°
Maximum altitude 08:41:04 23° 30° (NNE) 1,768 9.9 30.9°
Drops below altitude 10° 08:45:42 10° 82° (E) 2,550 11.6 31.7°
Sets 08:48:45 0° 97° (E) 3,502 12.0 32.2°
